Simultaneous Nadir Overpasses (SNOs) Predictions

Prediction of SNOs between AURA and NPP Satellite Orbit:

Table of predicted SNOs for the next 14.0 days since TLE Epoch: 5/1/2021
Index Date (AURA) Time (AURA) Lat,Lon (AURA) SZA (AURA ) Date (NPP) Time (NPP) Lat,Lon (NPP) SZA (NPP ) Distance(km) Time Diff (sec)
1 05/01/2021 03:41:27 79.36, 20.42 77.61 05/01/2021 03:40:50 79.35, 20.35 77.65 1.58 37
2 05/01/2021 04:30:47 -79.63,-170.05 102.81 05/01/2021 04:31:27 -79.63,-170.03 102.84 0.46 40
3 05/03/2021 19:57:52 79.50, 137.29 76.61 05/03/2021 19:57:43 79.51, 137.34 76.60 0.95 9
4 05/03/2021 20:47:12 -79.77, -53.11 103.81 05/03/2021 20:48:20 -79.78, -52.96 103.89 3.08 68
5 05/06/2021 11:24:59 -79.31, 84.23 103.87 05/06/2021 11:24:01 -79.31, 84.24 103.83 0.46 58
6 05/06/2021 12:14:19 79.53,-106.66 75.81 05/06/2021 12:14:39 79.52,-106.76 75.82 2.16 20
7 05/09/2021 03:41:26 -79.37,-159.51 104.67 05/09/2021 03:40:57 -79.36,-159.59 104.63 1.88 29
8 05/09/2021 04:30:43 79.69, 10.42 74.84 05/09/2021 04:31:31 79.70, 10.52 74.79 1.96 48
9 05/11/2021 19:57:49 -79.57, -42.23 105.66 05/11/2021 19:57:48 -79.58, -42.09 105.68 3.03 1
10 05/11/2021 20:44:30 81.15,-172.18 65.20 05/11/2021 20:45:42 80.34,-174.08 64.79 96.39 72
11 05/14/2021 11:24:56 79.33, -95.63 74.06 05/14/2021 11:24:07 79.33, -95.64 74.10 0.18 49



Historial Predications of SNOs between AURA and NPP
